Tracking 29892 objects as of 21-Nov-2024
HD Live streaming from Space Station
objects crossing your sky now

DELTA 1 DEB

Track DELTA 1 DEB now!
10-day predictions


NORAD ID: 7170
Int'l Code: 1973-086EJ
Perigee: 1,168.6 km
Apogee: 1,322.6 km
Inclination: 101.7 °
Period: 110.3 minutes
Semi major axis: 7616 km
RCS: 0.0871 m2 (small)
Launch date: November 6, 1973
Source: United States (US)
Launch site: AIR FORCE WESTERN TEST RANGE (AFWTR)

Note: This is SATELLITE DEBRIS
Your satellite tracking list
Your tracking list is empty




NASA's NSSDC Master Catalog

Two Line Element Set (TLE):
1 07170U 73086EJ  24325.92254622  .00000946  00000-0  29660-2 0  9991
2 07170 101.6876 319.8862 0101043 283.2950 105.6650 13.06052726389297
Source of the keplerian elements: AFSPC